Weather in Okene

Nigeria     7°33′04″N   6°14′06″E
temp.,
°C
wind,
m/s
gust,
m/s
humid.,
%
clouds,
%
prec.,
mm/h
press.,
hPa
HPBL,
m
18 may, tue
tue1801:00+25ssw278596 0.0 1011332
04:00+24ssw279146 0.0 1010282
07:00+24sw139383 0.0 1012183
10:00+29sw346725 0.0 1013903
13:00+32ssw335082 0.0 10111873
16:00+32sw334990 0.0 10091314
19:00+27s4969100 0.0 1011404
22:00+25ssw41082100 0.0 1013545
19 may, wed
wed1901:00+23ssw4109054 0.0 1013525
04:00+22sw2896100 0.0 1011334
07:00+23sw129494 0.0 1013176
10:00+28ssw346319 0.0 1014872
13:00+33ssw334682 0.0 10111618
16:00+34sse234021 0.0 10082082
19:00+27ssw377284 0.1 1010213
22:00+26sw5117819 0.0 1012494
20 may, thu
thu2001:00+24sw4118933 0.0 1012565
04:00+24sw4108983 0.0 1012683
07:00+24sw4108867 0.0 1013579
10:00+29sw456656 0.0 10141102
13:00+30sw346072 0.1 10121317
16:00+32ssw3353100 0.1 10101614
19:00+26sw24818 0.9 101281
22:00+24sw410905 0.4 1013337
21 may, fri
fri2101:00+23sw3109377 0.4 1012369
04:00+22sw3109670 0.0 1012369
07:00+23ssw289692 0.0 1013329
10:00+28sw3570100 0.0 1015781
13:00+34ssw334654 0.0 10122030
16:00+31s3653100 0.0 1009300
19:00+27wsw49680 0.0 1010315
22:00+26wsw310770 0.0 1011387
22 may, sat
sat2201:00+24sw411870 0.0 1012445
04:00+23sw3109434 0.0 1012442
07:00+24sw499079 0.0 1013446
10:00+29sw4464100 0.0 1014885
13:00+34s234643 0.0 10121911
16:00+35sse3240100 0.0 10092000
19:00+28s386751 0.1 1010361
22:00+26sw398077 0.0 1013400